Regional Weather Roundup
Issued by NWS State College, PA

Home | Current Version | Previous Version | Graphics & Text | Print | Product List | Glossary Off
Versions: 1 2 3 4 5 6 7 8 9 10 11 12 13 14 15 16 17 18 19 20 21 22 23 24 25 26 27 28 29 30 31 32 33 34 35 36 37 38 39 40 41 42 43 44 45 46 47 48 49 50

000
ASUS41 KCTP 160910
RWRCTP

REGIONAL WEATHER ROUNDUP
NATIONAL WEATHER SERVICE STATE COLLEGE PA
500 AM EDT WED AUG 16 2017

Note: "fair" indicates few or no clouds below 12,000 feet with no
significant weather and/or obstructions to visibility.

* = STATION THAT DOES NOT REPORT PRECIPITATION /E.G. RAIN...SNOW...ETC/
    THUNDER OR FOG.

PAZ002>004-007>009-013>016-020>023-029>032-161000-
WESTERN PENNSYLVANIA

CITY           SKY/WX    TMP DP  RH WIND       PRES   REMARKS
ERIE           CLEAR     60  57  89 S6        30.03R
MEADVILLE      CLEAR     59  59 100 CALM      30.05R
FRANKLIN*      MOCLDY    57  54  88 CALM      30.05R VSB 1/2
NEW CASTLE     PTSUNNY   61  61 100 CALM      30.04S FOG
BEAVER COUNTY  NOT AVBL
BUTLER*        PTCLDY    63  61  94 CALM      30.04R
PITTSBURGH INT MOCLDY    69  65  86 NE5       30.02S
PITTSBURGH     PTCLDY    68  65  90 CALM      30.02R
INDIANA*       CLOUDY    63  63 100 CALM      30.05S FOG
LATROBE        CLEAR     63  63 100 CALM      30.04R FOG
WASHINGTON CO* CLOUDY    61  59  94 CALM      30.03R VSB 3/4
$$

PAZ004>006-010>012-017>019-024>028-033>037-041-042-045-046-049>053-161000-
CENTRAL PENNSYLVANIA

CITY           SKY/WX    TMP DP  RH WIND       PRES   REMARKS
BRADFORD       FOG       57  57 100 CALM      30.05R VSB 1/4
DUBOIS         CLEAR     61  58  90 NW3       30.04R FOG
CLEARFIELD     MOCLDY    62  62 100 CALM      30.04R FOG
JOHNSTOWN      CLEAR     66  63  90 NW6       30.06R
ALTOONA        MOCLDY    64  64 100 NE3       30.02R FOG
STATE COLLEGE  PTCLDY    64  63  98 CALM      30.01R
WILLIAMSPORT   MOCLDY    65  64  97 CALM      29.97R
SELINSGROVE    FOG       65  65 100 CALM      29.98R VSB 1/2
FT INDIANTOWN  FOG       66  66 100 CALM      29.97R VSB 1/2
CAPITAL CITY   CLOUDY    67  65  93 W5        29.96R FOG
HARRISBURG     FOG       69  69 100 NE3       29.95S VSB 1/8
YORK           FOG       64  64 100 CALM      29.96S VSB 1/4
$$

PAZ038>040-043-044-047-048-054-055-060>062-067>071-161000-
EASTERN PENNSYLVANIA

CITY           SKY/WX    TMP DP  RH WIND       PRES   REMARKS
SCRANTON       FOG       64  64 100 E5        29.99R VSB 1/4
MOUNT POCONO   CLEAR     61  61 100 NW6       30.01R
ALLENTOWN      FOG       68  66  93 W3        29.95R VSB 1/4
QUAKERTOWN*    CLOUDY    63  63 100 CALM      29.96S VSB 1/4
READING        FOG       67  67 100 CALM      29.94S VSB 1/4
LANCASTER      FOG       68  68 100 NW5       29.96R VSB 1/4
COATESVILLE    FOG       64  64 100 CALM      29.98R VSB<1/4
POTTSTOWN      FOG       66  66 100 CALM      29.96S VSB 1/4
BLUE BELL      CLOUDY    66  66 100 CALM      29.96R VSB 1/4
DOYLESTOWN     FOG       68  68 100 W3        29.94R VSB 1/2
WILLOW GROVE   NOT AVBL
NORTH PHILA    FOG       72  70  93 W3        29.95R VSB 1/2
PHILADELPHIA   CLEAR     71  69  93 CALM      29.94R FOG
$$




USA.gov is the U.S. government's official web portal to all federal, state and local government web resources and services.